English version Home page |
Updated on August 15, 2020 |
|
軌道要素Epoch 2018 Aug. 30.0 TT = JDT 2458360.5 T 2018 Aug. 29.31808 TT MPCW q 1.9385086 (2000.0) P Q n 0.07913434 Peri. 156.30845 +0.16744393 -0.82537412 a 5.3731143 Node 280.27156 +0.79409973 +0.43702875 e 0.6392207 Incl. 33.22762 +0.58426719 -0.35744011 P 12.45 From 53 observations 2018 Nov. 10-2019 Mar. 1, mean residual 0".4.
|
光度変化m1 = 15.5 + 5 logΔ + 10.0 log r
|
軌道要素はM.P.E.C. 2019-J142に掲載されたものです。
|